TimeCDT,TemperatureF,Dew PointF,Humidity,Sea Level PressureIn,VisibilityMPH,Wind Direction,Wind SpeedMPH,Gust SpeedMPH,PrecipitationIn,Events,Conditions,WindDirDegrees,DateUTC
12:54 AM,72.0,63.0,73,30.09,10.0,South,8.1,-,N/A,,Mostly Cloudy,190,2012-09-27 05:54:00
1:54 AM,70.0,62.1,76,30.08,10.0,South,10.4,-,N/A,,Scattered Clouds,190,2012-09-27 06:54:00
2:54 AM,71.1,61.0,70,30.07,10.0,SSW,4.6,-,N/A,,Mostly Cloudy,210,2012-09-27 07:54:00
3:54 AM,70.0,61.0,73,30.08,10.0,SSW,6.9,-,N/A,,Mostly Cloudy,210,2012-09-27 08:54:00
4:54 AM,70.0,61.0,73,30.09,10.0,SSW,5.8,-,N/A,,Scattered Clouds,210,2012-09-27 09:54:00
5:54 AM,70.0,61.0,73,30.11,10.0,Calm,Calm,-,N/A,,Scattered Clouds,0,2012-09-27 10:54:00
6:54 AM,66.9,60.1,79,30.12,10.0,South,4.6,-,N/A,,Mostly Cloudy,190,2012-09-27 11:54:00
7:54 AM,69.1,62.1,78,30.14,10.0,South,4.6,-,N/A,,Scattered Clouds,190,2012-09-27 12:54:00
8:54 AM,73.9,63.0,68,30.13,10.0,SSW,8.1,16.1,N/A,,Scattered Clouds,200,2012-09-27 13:54:00
9:54 AM,79.0,64.0,60,30.14,10.0,WSW,9.2,-,N/A,,Scattered Clouds,240,2012-09-27 14:54:00
10:54 AM,81.0,64.9,58,30.15,10.0,SW,9.2,-,N/A,,Mostly Cloudy,220,2012-09-27 15:54:00
11:54 AM,82.9,64.9,54,30.13,10.0,SW,5.8,-,N/A,,Mostly Cloudy,220,2012-09-27 16:54:00
12:54 PM,84.9,64.9,51,30.11,10.0,SSE,3.5,-,N/A,,Mostly Cloudy,150,2012-09-27 17:54:00
1:54 PM,86.0,66.0,51,30.09,10.0,South,5.8,-,N/A,,Scattered Clouds,180,2012-09-27 18:54:00
2:54 PM,86.0,64.0,48,30.06,10.0,SSW,9.2,-,N/A,,Scattered Clouds,200,2012-09-27 19:54:00
3:54 PM,87.8,62.6,43,30.06,10.0,South,9.2,-,N/A,,Partly Cloudy,190,2012-09-27 20:54:00
4:54 PM,86.0,62.1,44,30.03,10.0,South,5.8,-,N/A,,Scattered Clouds,180,2012-09-27 21:54:00
5:54 PM,84.0,62.1,47,30.04,10.0,SSW,5.8,-,N/A,,Mostly Cloudy,200,2012-09-27 22:54:00
6:54 PM,82.9,62.1,49,30.05,10.0,Calm,Calm,-,N/A,,Overcast,0,2012-09-27 23:54:00
7:54 PM,78.1,64.0,62,30.07,10.0,SSW,3.5,-,N/A,,Mostly Cloudy,200,2012-09-28 00:54:00
8:54 PM,81.0,63.0,54,30.08,10.0,SE,4.6,-,N/A,,Mostly Cloudy,140,2012-09-28 01:54:00
9:54 PM,75.0,66.0,73,30.09,10.0,WNW,4.6,-,N/A,,Mostly Cloudy,300,2012-09-28 02:54:00
11:54 PM,75.0,66.0,73,30.07,10.0,Calm,Calm,-,N/A,,Mostly Cloudy,0,2012-09-28 04:54:00